User: anonymous   Login
Location: Morehead State University
(38.1872°N, 83.4339°W)
Time: 21:47:49
(UTC-04:00)
Language:

Okean 2 - Orbit

View from above orbital plane
View from above orbital plane
View from above satellite
View from above satellite

Ground track
Ground track

The orbit data is extracted from the following two-line orbital elements,

1 20510U 90018A   15084.85605869  .00003843  00000-0  32831-3 0  9999
2 20510 082.5161 232.6936 0012373 205.3400 314.5361 14.97364131359508
Epoch (UTC): 25 March 2015 20:32:43
Eccentricity: 0.0012373
inclination: 82.5161°
perigee height: 566 km
apogee height: 583 km
right ascension of ascending node: 232.6936°
argument of perigee: 205.3400°
revolutions per day: 14.97364131
mean anomaly at epoch: 314.5361°
orbit number at epoch: 35950

The dashed part of the orbit path shows where the satellite is in the earth's shadow,  

DLR